sat.trackr.live / text

‹ back to catalog

GEESAT-5 01

NORAD 65550 · 2025-201A

PAYLOAD ACTIVE UNKNOWN

§ Identity

Operator
Country
PRC
Launch date
2025-09-08
Launch site
YSLA
Launch vehicle
Mass (kg)
RCS (m²)

External: N2YO · Heavens-Above · Gunter

§ Orbital elements

Epoch: 2026-09-20T20:46:23.018016Z

Period
97.01 min
Inclination
49.9928°
Eccentricity
0.0002727
Mean motion
14.84407515 rev/d
Perigee alt
613.5 km
Apogee alt
617.4 km
Semi-major
6,993.6 km
B*
1.1647e-4
RAAN
315.7264°
Arg perigee
51.8391°
Mean anomaly
308.2793°
Rev number
5,601

§ Raw data

GEESAT-5 011 65550U 25201A   26263.86554419  .00000762  00000+0  11647-3 0  99982 65550  49.9928 315.7264 0002727  51.8391 308.2793 14.84407515 56010

JSON: /api/v1/satellites/65550 · /tle

For live sub-satellite position, see the globe view (requires WebGL).

§ Visibility from observer

Set your observer location to see the next 7 days of passes ≥ 10°. The values pass through the URL so the page stays shareable.

No JS? Fill the form by hand. The geolocation button needs JavaScript.